SCP
0 0 0 0 0 0 0 0 0 0 0 0 0 0 0 0 0 0 0 0 0 0 0 0 0 0 0 0 0 0 0 0 0 1 1 1 1 1
0 0 0 0 0 0 0 0 0 0 0 0 0 0 0 0 0 0 0 0 0 0 0 0 0 0 0 0 0 0 0 0 0 0 0 1 1 1
0 0 0 0 0 0 0 0 0 0 0 0 0 0 0 0 0 0 0 0 0 0 0 0 0 0 0 0 0 0 0 0 0 0 0 1 1 1
0 0 0 0 0 0 0 0 0 0 0 0 0 0 0 0 0 0 0 0 0 0 0 0 0 0 0 0 0 0 0 0 0 0 0 0 1 1
0 0 0 0 0 0 0 0 0 1 0 0 0 0 0 0 0 0 0 0 0 0 0 0 0 0 0 0 0 0 0 0 0 0 0 0 1 1
0 0 0 0 0 0 0 0 0 1 1 1 0 0 0 0 0 0 0 0 0 0 0 0 0 0 0 0 0 0 0 0 0 0 0 0 0 0
0 0 0 0 0 0 0 0 0 0 1 1 1 0 0 0 0 0 0 0 0 0 0 0 0 0 0 0 0 0 0 0 0 0 0 0 0 0
0 0 0 0 0 0 0 0 0 0 0 1 1 1 0 0 0 0 0 0 0 0 0 0 0 0 0 0 0 0 0 0 0 0 0 0 0 0
0 0 0 0 0 0 0 0 0 0 0 0 1 0 0 0 0 0 0 0 0 0 0 0 0 0 0 0 0 0 0 0 0 0 0 0 0 0
0 0 0 0 0 0 0 0 0 0 0 0 0 0 0 0 0 0 0 0 0 0 0 0 0 0 0 0 0 0 0 0 0 0 0 0 0 0
0 0 0 0 0 0 0 0 0 0 0 0 0 0 0 0 0 0 0 0 0 0 0 0 0 0 0 0 0 0 0 0 0 0 0 0 0 0
0 0 0 0 0 0 0 0 0 0 0 0 0 0 0 0 0 0 0 0 0 0 0 0 0 0 0 0 0 0 0 0 0 0 0 0 0 0
0 0 0 0 0 0 0 0 0 0 0 0 0 0 0 0 0 0 0 0 0 0 0 0 0 0 0 0 0 0 0 0 0 0 0 0 0 0
0 0 0 0 0 0 0 0 0 0 0 0 0 0 0 0 0 0 0 0 0 0 0 0 0 0 0 0 0 0 0 0 0 0 0 0 0 0
0 0 0 0 0 0 0 0 0 0 0 0 0 0 0 0 0 0 0 0 0 0 0 0 0 0 0 0 0 0 0 0 0 0 0 0 0 0
0 0 0 0 0 0 0 0 0 0 0 0 0 0 0 0 0 0 0 0 0 0 0 0 0 0 0 0 0 0 0 0 0 0 0 0 0 0
0 0 0 0 0 0 0 0 0 0 0 0 0 0 0 0 0 0 0 0 0 0 0 0 0 0 0 0 0 0 0 0 0 0 0 0 0 0
0 0 0 0 0 0 0 0 0 0 0 0 0 0 0 0 0 0 0 0 0 0 0 0 0 0 0 0 0 0 0 0 0 0 0 0 0 0
0 0 0 0 0 0 0 0 0 0 0 0 0 0 0 0 0 0 0 0 0 0 0 0 0 0 0 0 0 0 0 0 0 0 0 0 0 0
0 0 0 0 0 0 0 0 0 0 0 0 0 0 0 0 0 0 0 0 0 0 0 0 0 0 0 0 0 0 0 0 0 0 0 0 0 0
0 0 0 0 0 0 0 0 0 0 0 0 0 0 0 0 0 0 0 0 0 0 0 0 0 0 0 0 0 0 0 0 0 0 0 0 0 0
0 0 0 0 0 0 0 0 0 0 0 0 0 0 0 0 0 0 0 0 0 0 0 0 0 0 0 0 0 0 0 0 0 0 0 0 0 0
0 0 0 0 0 0 0 0 0 0 0 0 0 0 0 0 0 0 0 0 0 0 0 0 0 0 0 0 0 0 0 0 0 0 0 0 0 0
Wind_Speed
2 2 2 2 2 2 2 2 2 4 4 3 3 3 3 3 6 4 4 7 9 9 9 9 9 10 11 11 11 12 13 13 12 12 13 14 14 14
1 2 2 2 2 1 1 1 2 2 3 3 3 4 4 4 7 5 4 9 9 9 9 9 9 10 11 11 12 12 13 13 13 13 13 13 14 13
1 2 2 2 1 1 1 1 1 1 3 4 3 3 4 5 5 4 4 4 4 8 9 10 11 11 11 12 12 12 13 13 13 13 13 13 13 12
2 2 2 2 1 1 1 1 1 1 2 4 4 4 4 4 4 4 4 4 3 7 9 10 10 11 12 12 12 12 13 12 12 13 14 14 13 11
2 2 2 1 1 1 1 1 1 1 1 2 4 3 3 3 4 4 4 4 4 6 8 9 10 10 11 12 12 12 12 12 13 13 13 14 13 11
1 1 1 1 2 1 1 1 1 1 1 2 3 3 3 4 3 4 5 4 4 5 6 7 8 10 11 12 12 12 12 12 13 13 14 13 13 12
1 1 1 1 2 1 1 1 0 1 1 2 2 3 3 4 4 3 4 5 4 3 5 5 5 4 6 9 11 12 12 12 13 13 14 13 13 13
1 1 1 1 2 2 2 2 2 1 1 1 2 2 4 4 3 4 4 4 4 4 4 5 4 4 5 4 11 13 13 13 13 13 14 13 13 13
1 1 1 2 2 1 2 3 3 4 3 1 1 3 3 3 3 3 4 3 3 4 4 4 4 4 5 6 12 13 12 13 13 13 13 14 13 13
0 0 1 1 1 1 2 2 3 3 3 2 1 2 2 2 2 2 2 3 2 2 3 3 4 4 5 5 10 13 14 14 14 14 14 14 13 13
1 1 1 0 2 3 3 2 3 3 5 6 6 5 6 6 4 2 3 3 3 3 3 3 4 5 4 3 6 12 14 15 15 15 15 14 14 13
1 1 2 2 3 3 2 1 2 2 3 4 5 6 5 6 8 4 2 2 2 3 4 4 3 4 5 3 3 5 7 12 15 15 16 15 15 8
1 1 1 3 4 4 3 2 2 3 2 3 3 4 4 4 4 4 3 2 1 1 3 3 3 3 3 5 5 4 5 5 6 8 12 15 15 11
0 1 1 4 4 5 4 5 6 5 3 3 3 3 3 3 4 4 3 3 1 1 3 2 2 3 3 4 5 5 5 4 5 6 6 11 12 13
1 3 4 4 4 3 5 7 5 3 2 3 2 2 2 2 2 3 3 3 2 2 3 2 2 2 2 3 4 5 6 5 4 5 6 6 5 6
2 3 5 5 5 5 5 4 3 2 2 2 1 1 2 2 3 3 2 3 3 3 3 3 3 2 2 3 3 5 4 5 6 6 6 5 4 4
3 2 3 3 3 3 3 3 2 2 3 2 2 2 2 2 2 2 2 2 3 4 5 5 4 3 3 2 3 4 4 4 5 6 6 6 5 4
5 3 2 2 2 2 2 2 2 2 2 2 2 2 2 2 2 2 2 2 3 3 4 4 5 5 3 2 2 4 4 4 5 6 5 5 6 5
4 2 2 1 1 1 1 1 1 2 2 2 2 1 1 2 2 2 3 3 3 3 3 3 4 4 5 6 5 2 4 5 6 5 4 4 5 7
2 2 1 1 1 1 1 1 1 1 1 1 1 1 1 1 2 2 2 2 3 3 3 3 3 3 2 4 5 5 5 4 4 5 5 5 5 7
2 1 1 1 1 1 1 1 1 1 1 1 1 1 1 1 1 2 2 4 3 3 3 4 4 6 3 3 3 5 4 5 6 5 5 6 6 5
1 1 1 1 1 1 1 1 1 1 1 1 1 1 1 1 1 2 2 2 2 3 3 4 4 3 2 2 4 5 6 7 7 8 7 5 3 4
1 1 1 1 1 1 0 0 0 0 0 1 1 1 1 1 1 1 2 2 2 3 3 4 3 2 2 2 3 4 6 7 6 6 5 7 7 8
Wind_Direction
258 259 258 262 253 252 251 245 256 300 309 316 322 329 332 334 333 340 341 342 341 340 340 340 337 333 335 336 333 331 331 329 318 309 304 301 299 294
263 261 266 264 260 253 250 256 243 255 289 309 308 311 320 327 331 340 339 338 341 339 339 341 338 336 341 345 340 336 336 333 329 319 312 306 303 298
287 272 280 277 269 268 260 256 257 251 279 302 308 317 325 321 327 334 332 329 332 339 344 348 345 343 346 343 340 337 336 334 331 327 323 318 311 305
278 281 283 287 288 282 268 267 267 261 262 295 314 323 319 317 321 331 334 335 332 338 344 345 342 345 346 344 343 341 339 338 335 331 327 324 316 313
263 263 274 274 290 303 294 274 276 288 277 281 303 315 320 325 334 333 335 330 333 338 342 341 339 342 342 342 341 341 341 339 336 333 330 330 325 317
257 251 259 258 264 271 276 269 279 312 313 299 308 321 325 325 332 335 337 340 335 337 339 341 343 343 343 341 341 342 343 342 342 340 338 337 332 325
284 270 264 298 311 315 314 303 332 321 319 320 316 326 329 335 333 325 327 325 327 342 333 338 340 342 340 340 343 346 348 348 346 344 343 342 341 338
284 304 304 298 312 327 339 357 357 327 301 304 306 319 315 320 325 329 330 336 329 341 339 327 343 339 335 336 345 350 353 352 351 352 352 350 347 343
261 309 341 330 336 340 3 13 7 5 357 319 302 302 299 303 316 328 330 331 316 323 333 321 336 332 332 337 348 354 357 358 356 355 356 356 354 347
272 264 307 323 331 26 50 32 15 10 360 356 336 312 320 320 303 303 308 319 305 326 348 324 330 323 323 327 346 358 1 359 356 356 355 356 354 349
351 360 339 315 355 47 70 54 32 20 24 35 33 30 25 20 17 20 358 355 341 338 360 341 325 318 312 318 344 358 360 360 359 357 356 357 355 351
14 357 354 15 20 46 79 86 55 19 20 24 28 25 24 22 24 27 4 360 351 336 350 348 333 337 329 320 333 343 351 353 357 357 357 356 354 349
28 358 352 18 40 47 55 68 62 65 52 46 36 26 23 22 20 19 15 20 13 322 331 347 336 341 322 312 323 335 344 342 346 348 353 356 355 353
85 7 30 44 53 57 65 58 64 65 64 55 46 29 19 11 5 6 9 16 13 305 317 344 331 330 328 321 318 326 333 337 342 341 342 345 350 353
84 65 60 60 64 65 62 65 67 62 64 58 41 18 358 346 353 359 2 4 2 356 351 347 331 314 310 306 312 320 325 330 341 341 339 338 336 337
73 66 65 68 68 60 59 60 50 52 65 62 33 8 5 10 12 3 358 354 1 350 344 346 337 323 312 300 300 312 319 318 328 332 327 323 325 327
86 71 57 57 52 47 48 49 43 41 45 43 39 25 16 14 2 354 359 7 13 345 338 340 330 304 272 291 307 309 315 315 316 326 330 329 325 327
87 81 70 65 62 51 45 37 35 36 37 40 36 25 14 4 356 352 359 11 2 344 337 334 339 342 342 316 261 302 318 315 319 325 325 325 324 329
80 81 80 75 61 54 46 49 35 20 31 40 33 20 7 355 356 359 359 358 351 340 333 334 346 357 355 340 322 313 317 317 322 325 327 317 309 315
62 72 73 68 65 60 47 39 41 41 35 28 20 17 8 358 355 353 351 348 339 335 334 336 342 341 324 306 304 307 311 307 316 322 321 312 300 302
55 57 57 61 66 59 47 40 54 52 26 16 8 6 357 352 346 340 338 341 343 336 331 323 308 314 295 297 305 311 313 313 309 306 316 322 327 334
59 55 45 45 52 55 50 38 41 35 18 9 344 341 340 336 332 329 328 327 325 319 311 307 315 331 345 335 317 311 316 324 324 319 313 305 311 325
46 43 42 40 43 46 68 39 1 334 326 318 313 317 323 323 312 306 308 311 317 320 323 325 332 336 325 310 309 309 316 323 331 337 333 327 316 300